SCP
0 0 0 0 0 0 0 0 0 0 0 0 0 0 0 0 0 0 0 0 0 0 0 0 0 1 1 0 0 0 0 0 0 0 0 0 0 0 0 0 0 0 0
0 0 0 0 0 0 0 0 0 0 0 0 0 0 0 0 0 0 0 0 0 0 0 0 0 0 0 0 0 0 0 0 0 0 0 0 0 0 0 0 0 0 0
0 0 0 0 0 0 0 0 0 0 0 0 0 0 0 0 0 0 0 0 0 0 0 0 0 0 0 0 0 0 0 0 0 0 0 0 0 0 0 0 0 0 0
0 0 0 0 0 0 0 0 0 0 0 0 0 0 0 0 0 0 0 0 0 0 0 0 0 0 0 0 0 0 0 0 0 0 0 0 0 0 0 0 0 0 0
0 0 0 0 0 0 0 0 0 0 0 0 0 0 0 0 0 0 0 0 0 0 0 0 0 0 0 0 0 0 1 0 0 0 0 0 0 0 0 0 0 0 0
0 0 0 0 0 0 0 0 0 0 0 0 0 0 0 0 0 0 0 0 0 0 0 0 0 0 0 0 0 1 1 1 0 0 0 0 0 0 0 0 0 0 0
0 0 0 0 0 0 0 0 0 0 0 0 0 0 0 0 0 0 0 0 0 0 0 0 0 0 0 0 0 1 1 1 1 0 0 0 0 0 0 0 0 0 0
0 0 0 0 0 0 0 0 0 0 0 0 0 0 0 0 0 0 0 0 0 0 0 0 0 0 0 0 0 0 1 1 1 1 1 1 0 0 0 0 0 0 0
0 0 0 0 0 0 0 0 0 0 0 0 0 0 0 0 0 0 0 0 0 0 0 0 0 0 0 0 0 0 0 0 1 1 1 1 1 0 0 0 0 0 0
0 0 0 0 0 0 0 0 0 0 0 0 0 0 0 0 0 0 0 0 0 0 0 0 0 0 0 0 0 0 0 0 0 0 1 1 1 0 0 0 0 0 0
0 0 0 0 0 0 0 0 0 0 0 0 0 0 0 0 0 0 0 0 0 0 0 0 0 0 0 0 0 0 0 0 0 0 0 0 0 0 0 0 0 0 0
0 0 0 0 0 0 0 0 0 0 0 0 0 0 0 0 0 0 0 0 0 0 0 0 0 0 0 0 0 0 0 0 0 0 0 0 0 0 0 0 0 0 0
0 0 0 0 0 0 0 0 0 0 0 0 0 0 0 0 0 0 0 0 0 0 0 0 0 0 0 0 0 0 0 0 0 0 0 0 0 0 0 0 0 0 0
0 0 0 0 0 0 0 0 0 0 0 0 0 0 0 0 0 0 0 0 0 0 0 0 0 0 0 0 0 0 0 0 0 0 0 0 0 0 0 0 0 0 0
0 0 0 0 0 0 0 0 0 0 0 0 0 0 0 0 0 0 0 0 0 0 0 0 0 0 0 0 0 0 0 0 0 0 0 0 0 0 0 0 0 0 0
0 0 0 0 0 0 0 0 0 0 0 0 0 0 0 0 0 0 0 0 0 0 0 0 0 0 0 0 0 0 0 0 0 0 0 0 0 0 0 0 0 0 0
0 0 0 0 0 0 0 0 0 0 0 0 0 0 0 0 0 0 0 0 0 0 0 0 0 0 0 0 0 0 0 0 0 0 0 0 0 0 0 0 0 0 0
0 0 0 0 0 0 0 0 0 0 0 0 0 0 0 0 0 0 0 0 0 0 0 0 0 0 0 0 0 0 0 0 0 0 0 0 0 0 0 0 0 0 0
0 0 0 0 0 0 0 0 0 0 0 0 0 0 0 0 0 0 0 0 0 0 0 0 0 0 0 0 0 0 0 0 0 0 0 0 0 0 0 0 0 0 0
0 0 0 0 0 0 0 0 0 0 0 0 0 0 0 0 0 0 0 0 0 0 0 0 0 0 0 0 0 0 0 0 0 0 0 0 0 0 0 0 0 0 0
0 0 0 0 0 0 0 0 0 0 0 0 0 0 0 0 0 0 0 0 0 0 0 0 0 0 0 0 0 0 0 0 0 0 0 0 0 0 0 0 0 0 0
0 0 0 0 0 0 0 0 0 0 0 0 0 0 0 0 0 0 0 0 0 0 0 0 0 0 0 0 0 0 0 0 0 0 0 0 0 0 0 0 0 0 0
0 0 0 0 0 0 0 0 0 0 0 0 0 0 0 0 0 0 0 0 0 0 0 0 0 0 0 0 0 0 0 0 0 0 0 0 0 0 0 0 0 0 0
0 0 0 0 0 0 0 0 0 0 0 0 0 0 0 0 0 0 0 0 0 0 0 0 0 0 0 0 0 0 0 0 0 0 0 0 0 0 0 0 0 0 0
0 0 0 0 0 0 0 0 0 0 0 0 0 0 0 0 0 0 0 0 0 0 0 0 0 0 0 0 0 0 0 0 0 0 0 0 0 0 0 0 0 0 0
0 0 0 0 0 0 0 0 0 0 0 0 0 0 0 0 0 0 0 0 0 0 0 0 0 0 0 0 0 0 0 0 0 0 0 0 0 0 0 0 0 0 0
Wind_Speed
2 2 1 1 2 2 2 2 2 2 2 2 2 3 4 4 4 4 3 7 8 8 8 9 10 10 11 10 10 10 10 11 10 10 9 8 8 7 7 7 7 6 6
2 2 1 1 2 2 2 3 3 3 2 2 3 3 3 4 4 4 3 5 7 8 8 9 10 10 10 10 10 11 10 10 10 10 9 9 8 8 8 7 7 6 6
3 2 2 2 2 1 2 2 2 2 2 2 3 3 3 3 4 4 4 3 4 7 9 9 9 9 10 10 10 10 10 9 9 9 9 9 8 8 8 8 7 7 6
3 3 2 2 2 1 2 2 2 2 2 2 2 3 2 3 4 4 4 4 3 4 6 9 9 9 9 10 10 10 10 10 9 9 9 10 9 8 8 7 6 6 6
3 3 2 2 2 2 2 2 2 2 2 3 3 2 2 2 3 3 3 4 4 4 3 6 8 8 9 9 10 10 10 10 10 10 10 10 9 8 7 7 6 5 5
2 2 2 2 2 2 2 2 2 2 2 2 2 2 2 2 2 3 3 3 3 4 4 5 4 6 9 9 9 10 11 10 10 10 10 10 9 8 7 7 6 6 6
2 2 2 2 2 2 3 3 2 2 2 1 1 1 2 2 3 2 2 2 3 4 4 4 4 3 4 8 9 9 11 11 10 10 10 10 9 8 7 7 7 6 5
2 2 2 2 2 2 2 2 2 2 1 2 2 1 1 2 2 2 2 3 4 3 4 5 4 4 4 3 5 9 9 10 11 11 10 9 9 9 8 8 7 7 6
1 1 2 2 2 2 2 3 3 4 2 2 2 3 3 3 2 2 3 3 3 3 4 4 5 5 5 4 4 6 8 8 9 10 10 9 9 9 8 8 8 8 7
1 2 2 2 2 2 2 3 3 2 3 2 2 2 2 2 2 1 1 2 3 4 4 4 5 5 5 4 4 6 7 7 8 9 10 10 10 10 9 9 9 8 8
2 2 2 2 2 2 3 3 2 3 3 3 3 2 2 1 2 2 2 2 2 3 3 4 4 4 4 4 4 6 7 6 7 8 9 9 10 11 11 10 10 10 9
1 2 2 3 3 3 3 3 3 3 3 3 3 3 3 3 3 3 3 3 3 2 3 3 4 4 4 4 6 7 7 7 7 7 8 8 9 10 11 11 11 11 10
2 3 3 3 3 4 4 3 3 4 4 4 4 3 3 3 3 3 3 2 2 2 2 2 4 4 4 4 5 7 7 7 8 7 7 8 9 9 10 11 11 11 10
4 4 4 4 4 4 4 4 3 4 4 4 5 4 3 3 3 3 3 3 2 2 2 3 2 4 4 4 5 7 5 8 8 8 8 8 9 10 10 10 11 10 10
3 4 4 4 4 4 4 4 3 4 4 5 5 5 4 3 3 3 3 4 4 3 4 3 2 3 3 3 5 5 5 7 8 8 8 9 9 10 10 10 11 11 10
3 3 3 4 4 4 4 4 4 4 4 5 4 5 4 4 3 3 4 4 4 4 4 3 3 3 3 4 5 6 6 8 9 9 9 9 10 11 11 11 11 11 11
3 3 4 4 4 4 4 4 4 5 5 5 5 5 6 5 4 4 4 4 4 4 5 4 3 3 3 4 4 4 4 5 5 8 9 10 10 11 11 11 11 11 11
3 4 3 4 4 4 4 5 5 5 5 6 6 5 6 5 5 4 4 5 5 5 5 5 3 3 4 4 4 4 4 5 5 7 9 10 10 10 10 10 11 11 11
4 4 3 4 4 4 4 5 5 5 6 6 6 6 6 6 6 5 5 5 5 5 5 5 4 3 3 3 3 3 4 3 4 5 7 8 9 10 10 10 11 10 10
3 4 4 4 4 4 5 5 5 5 5 6 6 6 7 7 7 7 6 6 5 5 4 4 4 3 3 3 3 3 3 3 3 3 4 5 6 9 9 10 10 11 10
3 3 3 3 3 3 4 5 5 5 5 5 5 6 6 7 8 7 6 5 5 5 4 4 4 3 4 3 4 3 4 3 3 3 3 3 4 4 5 7 9 11 11
3 2 3 3 4 4 4 5 4 4 4 5 5 5 5 6 7 8 9 8 8 7 6 5 4 5 5 5 4 4 3 3 3 3 3 3 4 5 5 5 8 10 11
3 3 3 3 4 5 5 5 4 3 4 4 5 4 4 4 5 5 6 7 8 9 10 7 7 7 7 6 5 5 5 5 5 3 3 4 3 4 4 5 9 10 11
3 3 3 3 3 4 5 4 4 3 3 4 4 5 5 5 5 5 5 5 5 6 7 7 7 7 7 6 6 5 5 4 3 2 4 3 3 4 4 4 7 10 11
3 3 3 3 3 4 5 4 3 2 2 4 4 4 5 5 6 5 4 5 5 5 5 7 7 7 7 7 6 4 4 4 4 3 3 3 3 2 3 3 4 8 9
3 3 3 3 3 4 5 4 3 2 2 3 3 4 5 5 5 5 4 4 5 5 3 3 3 4 4 5 7 7 6 5 3 3 4 4 3 2 2 2 3 3 5
Wind_Direction
184 197 201 197 195 183 180 185 191 213 222 227 225 217 215 215 212 212 223 225 224 224 224 224 225 220 219 222 221 216 214 212 210 211 215 216 218 219 217 214 215 214 217
178 181 194 200 210 198 189 192 197 204 214 219 232 231 224 221 221 218 221 228 227 223 223 227 231 226 221 221 221 220 217 215 211 210 212 217 220 220 220 218 220 219 221
180 177 186 203 217 204 193 191 201 195 204 211 229 234 227 222 220 221 223 220 227 229 226 227 228 225 221 223 223 220 216 213 211 210 211 214 216 217 218 219 222 223 222
187 179 191 206 204 187 185 191 198 202 213 214 224 234 230 223 221 220 221 220 221 229 231 228 227 223 221 224 226 223 219 215 214 214 214 215 216 216 216 215 216 219 217
192 183 193 205 193 186 189 207 191 191 210 223 228 225 227 227 226 223 222 224 221 221 227 232 230 226 223 226 228 226 223 220 218 218 217 216 217 216 213 210 210 213 215
187 180 186 196 185 185 199 201 200 196 211 216 232 245 239 233 224 221 227 227 224 224 225 232 235 236 229 228 228 228 225 223 222 219 217 216 217 216 211 208 206 209 217
185 180 188 188 192 198 209 200 193 201 220 185 158 293 291 250 232 224 222 221 230 232 228 230 230 232 235 233 232 230 228 224 223 223 221 218 214 210 208 206 205 204 209
180 180 166 194 205 206 210 206 192 189 212 179 167 161 279 299 266 236 225 220 229 229 233 234 230 227 230 231 232 231 230 229 227 224 222 218 214 210 210 213 213 210 207
203 185 170 183 194 193 206 210 202 193 203 207 196 178 181 223 255 258 234 228 227 226 233 236 233 233 231 229 234 237 232 228 228 227 224 220 214 211 210 212 214 214 214
214 204 199 198 192 191 205 215 202 198 184 205 211 213 203 177 187 253 270 243 236 237 240 239 237 232 230 228 229 232 233 230 231 230 228 221 215 210 211 212 215 218 219
234 224 214 211 205 206 212 219 206 203 199 201 201 193 198 206 197 199 249 261 258 240 237 236 234 230 229 225 225 229 227 228 232 231 227 224 220 213 211 213 218 220 220
269 252 228 215 216 215 216 217 211 210 212 209 209 201 188 184 194 196 222 241 255 260 246 236 232 231 229 224 226 227 225 221 224 228 230 228 225 219 215 216 218 219 220
249 243 233 221 221 219 219 215 209 214 214 211 214 215 208 207 192 189 200 230 252 272 264 244 232 230 230 224 224 228 228 221 221 225 230 234 231 225 219 218 219 220 220
238 233 229 229 230 223 221 213 214 218 214 218 220 213 213 217 205 199 193 196 236 262 254 251 249 230 230 226 226 228 231 223 218 221 224 230 234 229 225 221 219 218 217
243 237 232 231 229 223 219 210 216 223 218 221 222 217 217 222 215 214 206 198 199 235 255 245 242 238 232 230 226 222 226 224 221 220 220 226 232 232 229 225 220 217 213
253 248 240 235 233 226 217 211 219 223 219 226 222 218 221 223 219 214 212 216 211 217 245 242 241 248 247 248 233 223 224 224 225 224 224 223 226 228 228 224 221 216 211
258 251 242 235 234 233 224 218 228 226 224 230 227 220 226 219 216 216 213 213 216 212 238 257 247 244 245 246 246 231 228 227 230 229 229 226 227 227 225 222 219 215 211
257 249 242 237 235 233 226 223 231 230 228 233 234 227 231 223 221 219 215 219 220 215 221 245 250 246 247 243 243 236 238 233 233 234 229 228 228 226 222 219 217 213 211
261 252 237 237 238 232 232 233 232 232 234 237 235 231 231 223 228 226 221 223 223 222 216 224 248 250 252 247 247 247 242 242 241 237 230 229 228 224 218 216 215 213 212
254 256 248 245 243 235 235 239 238 236 238 240 237 234 232 223 225 227 226 224 220 221 218 222 239 247 247 245 231 234 245 238 243 242 240 233 227 222 218 215 215 214 213
269 262 257 255 253 243 238 237 239 237 235 241 240 236 236 233 230 226 226 220 213 217 219 222 230 241 243 230 227 222 232 242 250 231 232 231 223 222 221 219 218 215 213
280 274 266 262 263 260 262 254 245 241 237 237 242 244 240 234 235 235 232 226 218 214 217 219 228 232 242 232 226 219 221 229 246 209 209 230 217 225 225 222 218 213 212
282 283 275 268 264 269 264 256 249 239 239 237 235 240 247 245 236 237 237 237 234 226 217 214 220 228 233 227 215 220 221 225 237 213 196 235 224 232 232 223 214 213 213
277 272 269 268 267 275 272 263 257 245 246 243 240 236 239 250 243 235 237 239 239 235 227 223 223 230 233 225 216 219 218 226 244 229 203 228 231 235 236 227 216 212 209
289 278 271 264 264 276 275 266 257 249 249 256 255 249 240 243 247 236 229 237 250 256 247 232 229 234 232 225 210 196 197 200 226 229 200 215 231 238 240 236 220 205 202
282 279 281 270 264 272 278 270 251 230 247 266 273 267 255 248 249 234 224 226 241 255 255 250 239 238 229 217 207 204 203 202 209 225 196 194 205 203 245 237 221 201 198